• In Uzbekistan
  • List of Countries
  • For 7 days
  • Water Temperature
  • Satellite Maps
  • Weather Map
  • Weather Widgets
  • user-avatar
    Login

    Hourly Weather Melbourne

    Today, 24 September, Sunday

    Time Temperature Precipitation Wind Pressure Humidity
    00:00 +13°C° 0 mm 4 mps 748 mmHg 76%
    01:00 +12°C° 0 mm 4 mps 748 mmHg 73%
    02:00 +12°C° 0 mm 4 mps 748 mmHg 74%
    03:00 +12°C° 0 mm 4 mps 748 mmHg 75%
    04:00 +11°C° 0 mm 4 mps 747 mmHg 77%
    05:00 +11°C° 0 mm 4 mps 748 mmHg 78%
    06:00 +10°C° 0 mm 5 mps 748 mmHg 79%
    07:00 +10°C° 0 mm 5 mps 748 mmHg 81%
    08:00 +11°C° 0.1 mm 6 mps 748 mmHg 78%
    09:00 +11°C° 0.1 mm 6 mps 748 mmHg 76%
    10:00 +13°C° 0 mm 6 mps 748 mmHg 71%
    11:00 +14°C° 0.2 mm 7 mps 748 mmHg 69%
    12:00 +14°C° 0.2 mm 7 mps 748 mmHg 67%
    13:00 +15°C° 0.2 mm 7 mps 748 mmHg 65%
    14:00 +15°C° 0.3 mm 7 mps 748 mmHg 65%
    15:00 +15°C° 0.3 mm 7 mps 747 mmHg 64%
    16:00 +15°C° 0.3 mm 8 mps 747 mmHg 64%
    17:00 +14°C° 0.1 mm 7 mps 748 mmHg 65%
    18:00 +14°C° 0.1 mm 6 mps 748 mmHg 67%
    19:00 +13°C° 0.1 mm 6 mps 748 mmHg 69%
    20:00 +13°C° 0 mm 6 mps 748 mmHg 68%
    21:00 +13°C° 0 mm 6 mps 749 mmHg 68%
    22:00 +12°C° 0 mm 7 mps 749 mmHg 68%
    23:00 +13°C° 0 mm 6 mps 750 mmHg 69%

    Tomorrow, 25 September, Monday

    Time Temperature Precipitation Wind Pressure Humidity
    00:00 +11°C° 0 mm 6 mps 750 mmHg 71%
    01:00 +11°C° 0 mm 6 mps 751 mmHg 73%
    02:00 +12°C° 0.2 mm 5 mps 751 mmHg 78%
    03:00 +10°C° 0.2 mm 5 mps 751 mmHg 83%
    04:00 +11°C° 0.2 mm 4 mps 752 mmHg 88%
    05:00 +10°C° 0.2 mm 4 mps 752 mmHg 90%
    06:00 +10°C° 0.2 mm 3 mps 753 mmHg 91%
    07:00 +10°C° 0.2 mm 3 mps 753 mmHg 93%
    08:00 +11°C° 0.2 mm 3 mps 754 mmHg 89%
    09:00 +11°C° 0.2 mm 4 mps 755 mmHg 85%
    10:00 +12°C° 0.2 mm 4 mps 755 mmHg 81%
    11:00 +13°C° 0.2 mm 4 mps 755 mmHg 76%
    12:00 +13°C° 0.2 mm 4 mps 756 mmHg 72%
    13:00 +14°C° 0.2 mm 4 mps 756 mmHg 67%
    14:00 +14°C° 0.2 mm 4 mps 756 mmHg 66%
    15:00 +14°C° 0.2 mm 4 mps 756 mmHg 65%
    16:00 +14°C° 0.2 mm 4 mps 756 mmHg 64%
    17:00 +13°C° 0 mm 3 mps 757 mmHg 66%
    18:00 +11°C° 0 mm 3 mps 758 mmHg 69%
    19:00 +10°C° 0 mm 2 mps 758 mmHg 71%
    20:00 +9°C° 0 mm 2 mps 759 mmHg 75%
    21:00 +8°C° 0 mm 2 mps 759 mmHg 78%
    22:00 +7°C° 0 mm 2 mps 760 mmHg 82%
    23:00 +7°C° 0 mm 2 mps 760 mmHg 84%

    Day after tomorrow, 26 September, Tuesday

    Time Temperature Precipitation Wind Pressure Humidity
    00:00 +6°C° 0 mm 2 mps 760 mmHg 85%
    01:00 +5°C° 0 mm 2 mps 760 mmHg 87%
    02:00 +5°C° 0 mm 2 mps 760 mmHg 87%
    03:00 +6°C° 0 mm 1 mps 760 mmHg 88%
    04:00 +5°C° 0 mm 1 mps 760 mmHg 89%
    05:00 +6°C° 0 mm 1 mps 760 mmHg 87%
    06:00 +6°C° 0 mm 1 mps 761 mmHg 85%
    07:00 +7°C° 0 mm 1 mps 761 mmHg 83%
    08:00 +10°C° 0 mm 1 mps 761 mmHg 72%
    09:00 +12°C° 0 mm 1 mps 761 mmHg 62%
    10:00 +15°C° 0 mm 1 mps 761 mmHg 51%
    11:00 +16°C° 0 mm 1 mps 760 mmHg 47%
    12:00 +18°C° 0 mm 1 mps 760 mmHg 43%
    13:00 +19°C° 0 mm 1 mps 760 mmHg 39%
    14:00 +18°C° 0 mm 2 mps 759 mmHg 41%
    15:00 +18°C° 0 mm 2 mps 758 mmHg 43%
    16:00 +18°C° 0 mm 2 mps 758 mmHg 44%
    17:00 +16°C° 0 mm 3 mps 758 mmHg 51%
    18:00 +14°C° 0 mm 3 mps 758 mmHg 57%
    19:00 +12°C° 0 mm 3 mps 758 mmHg 64%
    20:00 +11°C° 0 mm 3 mps 758 mmHg 68%
    21:00 +10°C° 0 mm 2 mps 758 mmHg 73%
    22:00 +9°C° 0 mm 2 mps 758 mmHg 78%
    23:00 +10°C° 0 mm 2 mps 757 mmHg 76%

    27 September, Wednesday

    Time Temperature Precipitation Wind Pressure Humidity
    00:00 +10°C° 0 mm 2 mps 756 mmHg 74%
    01:00 +12°C° 0 mm 2 mps 755 mmHg 72%
    02:00 +10°C° 0.1 mm 2 mps 754 mmHg 75%
    03:00 +10°C° 0.1 mm 2 mps 753 mmHg 78%
    04:00 +10°C° 0.1 mm 2 mps 752 mmHg 80%
    05:00 +11°C° 0 mm 3 mps 752 mmHg 77%
    06:00 +11°C° 0 mm 3 mps 751 mmHg 74%
    07:00 +12°C° 0 mm 3 mps 751 mmHg 71%
    08:00 +15°C° 0 mm 4 mps 750 mmHg 63%
    09:00 +17°C° 0 mm 5 mps 750 mmHg 55%
    10:00 +21°C° 0 mm 6 mps 749 mmHg 47%
    11:00 +22°C° 0 mm 7 mps 749 mmHg 43%
    12:00 +23°C° 0 mm 8 mps 748 mmHg 40%
    13:00 +24°C° 0 mm 8 mps 748 mmHg 36%
    14:00 +23°C° 0 mm 8 mps 748 mmHg 39%
    15:00 +22°C° 0 mm 8 mps 748 mmHg 42%
    16:00 +21°C° 0 mm 7 mps 747 mmHg 45%
    17:00 +18°C° 0.1 mm 7 mps 748 mmHg 52%
    18:00 +16°C° 0.1 mm 6 mps 749 mmHg 60%
    19:00 +14°C° 0.1 mm 6 mps 750 mmHg 67%
    20:00 +13°C° 0 mm 5 mps 751 mmHg 72%
    21:00 +12°C° 0 mm 5 mps 752 mmHg 76%
    22:00 +12°C° 0 mm 4 mps 753 mmHg 80%
    23:00 +11°C° 0 mm 4 mps 753 mmHg 83%

    28 September, Thursday

    Time Temperature Precipitation Wind Pressure Humidity
    00:00 +10°C° 0 mm 4 mps 753 mmHg 86%
    01:00 +10°C° 0 mm 3 mps 754 mmHg 89%
    02:00 +9°C° 0 mm 3 mps 754 mmHg 90%
    03:00 +9°C° 0 mm 3 mps 754 mmHg 91%
    04:00 +8°C° 0 mm 3 mps 755 mmHg 93%
    05:00 +8°C° 0 mm 3 mps 755 mmHg 92%
    06:00 +8°C° 0 mm 3 mps 756 mmHg 91%
    07:00 +8°C° 0 mm 3 mps 757 mmHg 91%
    08:00 +10°C° 0 mm 3 mps 757 mmHg 80%
    09:00 +11°C° 0 mm 3 mps 758 mmHg 69%
    10:00 +13°C° 0 mm 3 mps 758 mmHg 58%
    11:00 +14°C° 0 mm 3 mps 758 mmHg 54%
    12:00 +16°C° 0 mm 3 mps 758 mmHg 50%
    13:00 +17°C° 0 mm 3 mps 757 mmHg 46%
    14:00 +17°C° 0 mm 4 mps 757 mmHg 48%
    15:00 +15°C° 0 mm 4 mps 757 mmHg 49%
    16:00 +15°C° 0 mm 4 mps 757 mmHg 51%
    17:00 +14°C° 0 mm 4 mps 758 mmHg 58%
    18:00 +12°C° 0 mm 3 mps 758 mmHg 64%
    19:00 +10°C° 0 mm 3 mps 759 mmHg 70%
    20:00 +9°C° 0 mm 2 mps 759 mmHg 75%
    21:00 +8°C° 0 mm 2 mps 760 mmHg 79%
    22:00 +7°C° 0 mm 2 mps 760 mmHg 84%
    23:00 +7°C° 0 mm 2 mps 760 mmHg 85%

    29 September, Friday

    Time Temperature Precipitation Wind Pressure Humidity
    00:00 +7°C° 0 mm 2 mps 760 mmHg 87%
    01:00 +6°C° 0 mm 2 mps 759 mmHg 88%
    02:00 +6°C° 0 mm 2 mps 759 mmHg 89%
    03:00 +6°C° 0 mm 2 mps 759 mmHg 89%
    04:00 +6°C° 0 mm 2 mps 759 mmHg 90%
    05:00 +6°C° 0 mm 2 mps 759 mmHg 88%
    06:00 +7°C° 0 mm 2 mps 759 mmHg 85%
    07:00 +7°C° 0 mm 3 mps 760 mmHg 83%
    08:00 +9°C° 0 mm 3 mps 760 mmHg 73%
    09:00 +12°C° 0 mm 3 mps 760 mmHg 63%
    10:00 +14°C° 0 mm 4 mps 760 mmHg 54%
    11:00 +15°C° 0 mm 4 mps 759 mmHg 52%
    12:00 +17°C° 0 mm 4 mps 758 mmHg 50%
    13:00 +17°C° 0 mm 4 mps 758 mmHg 49%
    14:00 +17°C° 0.2 mm 4 mps 758 mmHg 53%
    15:00 +16°C° 0.2 mm 5 mps 757 mmHg 58%
    16:00 +15°C° 0.2 mm 5 mps 757 mmHg 63%
    17:00 +14°C° 0.2 mm 4 mps 758 mmHg 70%
    18:00 +12°C° 0.2 mm 4 mps 758 mmHg 77%
    19:00 +11°C° 0.2 mm 3 mps 759 mmHg 84%
    20:00 +10°C° 0.1 mm 3 mps 759 mmHg 86%
    21:00 +10°C° 0.1 mm 3 mps 759 mmHg 88%
    22:00 +9°C° 0.1 mm 3 mps 759 mmHg 91%
    23:00 +9°C° 0 mm 3 mps 759 mmHg 91%
    Show more